Theta_e
304 304 304 303 307 305 315 320 318 321 321 325 324 324 325 316 325 324 323 325 326 327 327 329 329 329 329 327 327 329 329 329 331 330 328 326 328 329 329 330 331 330 331 330
303 304 304 304 308 309 310 320 320 321 322 321 323 325 325 325 326 325 325 325 325 325 327 329 328 328 326 326 327 329 329 329 331 331 329 328 328 328 329 329 329 330 329 327
302 303 304 304 307 309 312 322 321 326 325 325 326 325 325 326 324 325 325 325 324 325 326 327 328 328 325 325 326 324 323 328 330 328 329 329 329 327 327 328 329 327 325 325
302 302 303 303 307 309 313 321 323 324 328 327 327 326 325 325 325 325 324 325 324 325 327 327 327 326 324 323 326 325 326 328 327 327 325 324 324 325 324 325 326 326 325 324
302 302 303 303 307 310 316 320 324 323 323 327 328 322 326 325 325 326 326 326 324 324 326 326 327 325 325 325 325 325 325 326 325 326 323 323 323 323 323 322 323 323 323 326
302 302 302 302 304 310 315 316 317 320 319 321 323 324 326 325 325 325 324 325 325 324 324 323 324 323 324 324 325 325 325 323 325 324 322 322 323 323 323 323 324 327 333 335
302 302 302 302 303 306 310 313 316 318 316 319 319 323 323 324 326 327 324 324 325 324 323 322 322 322 323 323 324 323 324 327 326 325 325 326 327 329 331 330 331 334 334 334
302 301 302 302 302 304 308 310 314 316 316 316 319 321 322 323 325 325 325 324 323 323 323 325 325 325 325 324 323 325 324 328 326 328 326 325 324 329 332 334 333 334 334 332
302 301 301 301 302 303 307 309 312 313 316 314 316 319 319 321 321 322 323 323 322 322 324 324 326 326 324 324 324 324 325 329 328 327 329 327 334 336 333 334 335 333 332 332
301 301 302 301 301 302 304 308 311 312 314 314 316 319 322 321 320 320 322 322 323 322 324 323 323 323 323 325 324 329 327 329 328 326 327 326 333 334 333 336 338 333 334 333
301 301 302 301 301 301 303 307 309 311 312 313 313 316 318 320 322 323 323 322 322 323 323 322 323 323 324 324 323 324 325 328 329 330 331 331 333 334 335 335 334 333 335 334
300 301 302 302 300 301 301 306 308 311 311 311 311 311 312 314 316 320 321 322 324 323 323 322 323 323 323 325 324 325 328 327 328 328 331 333 329 329 329 330 333 334 335 334
301 301 301 301 300 301 301 304 306 308 311 311 311 312 310 310 313 315 318 321 321 323 322 324 324 325 324 326 325 324 327 329 328 326 326 327 328 326 326 328 331 333 333 334
302 301 301 301 301 300 300 303 305 308 310 312 310 310 311 312 312 314 315 316 319 319 321 322 324 324 322 323 323 325 323 329 327 328 327 327 326 324 326 325 326 329 333 333
302 301 301 301 301 301 301 301 303 305 310 312 312 309 308 309 310 314 315 315 318 320 321 322 323 322 322 322 322 322 321 323 324 324 323 323 323 322 323 324 324 325 332 332
302 301 301 301 301 300 302 307 306 304 307 310 310 309 310 310 310 311 316 318 319 319 321 322 321 321 322 322 322 321 320 320 319 320 320 321 321 322 323 325 329 328 332 331
302 301 302 301 301 301 302 308 306 306 307 311 312 312 314 315 312 314 315 316 318 320 321 321 322 322 320 322 322 321 320 320 320 320 321 323 322 323 322 325 327 328 330 331
302 301 301 301 301 301 301 302 304 304 307 309 312 312 313 316 318 315 315 317 318 319 320 321 322 322 323 323 322 321 320 320 321 321 328 326 326 327 325 327 330 331 332 332
301 301 301 301 302 304 306 304 306 307 308 312 313 313 315 317 319 316 316 318 320 318 319 322 322 323 323 322 322 321 322 325 328 327 325 327 331 332 331 332 332 332 332 331
301 302 303 306 307 306 306 308 310 310 310 310 313 315 316 315 321 319 319 318 323 324 322 321 322 322 321 321 321 322 324 325 325 326 325 328 328 330 331 332 332 332 330 330
303 305 307 308 307 308 310 312 312 312 312 311 313 313 316 314 318 323 323 323 324 324 323 322 322 322 322 326 326 326 326 326 325 326 327 327 327 329 330 331 331 330 330 331
305 304 305 308 310 312 312 313 312 310 315 315 316 315 314 314 318 320 324 323 322 323 322 322 323 331 329 328 327 327 327 327 326 326 326 326 326 327 328 329 329 328 327 328
303 305 308 310 312 314 312 312 315 316 315 316 318 318 316 316 316 322 325 323 324 324 326 326 329 329 328 327 325 325 326 326 326 326 326 326 326 327 327 328 327 328 328 329
304 306 307 311 312 312 313 312 315 315 317 318 318 319 314 316 319 323 323 321 324 324 325 327 331 327 326 324 323 325 325 325 325 326 326 325 325 326 327 328 327 327 327 326
307 306 310 312 312 313 313 314 315 315 317 317 318 320 319 319 322 323 322 324 323 324 328 329 328 326 324 323 323 324 324 324 324 324 326 325 325 325 324 324 326 325 323 321
307 305 309 314 316 316 316 317 319 318 320 318 320 322 321 321 321 322 322 321 325 327 327 328 327 326 325 326 326 324 323 324 324 325 326 326 324 323 323 323 325 324 323 322
308 310 313 312 313 314 316 315 317 318 320 323 323 322 320 321 321 322 324 326 327 326 326 325 325 325 325 325 323 323 324 325 324 324 325 325 324 324 323 322 320 319 319 318
Wind_Speed
25 27 29 30 31 33 16 6 4 5 7 5 1 5 1 0 2 2 4 4 3 6 4 5 5 7 2 2 1 3 2 5 9 7 6 2 6 5 7 6 5 8 10 14
24 26 27 28 24 26 12 6 4 3 4 5 6 4 4 2 3 0 3 6 4 4 5 4 4 5 4 2 1 0 2 4 8 11 10 8 9 8 9 7 7 12 11 9
24 24 26 27 22 23 8 4 3 3 2 2 6 4 5 5 2 2 2 1 5 7 7 4 6 7 5 2 4 2 1 8 9 12 13 8 10 12 11 12 9 15 15 19
21 23 25 27 22 19 3 1 3 4 1 4 3 4 2 8 7 2 2 5 5 8 8 8 7 5 6 6 6 4 4 9 12 12 14 16 16 18 16 19 20 19 19 20
18 20 22 24 21 13 3 4 4 2 4 3 5 4 6 8 4 4 5 7 1 4 8 7 6 7 5 5 7 6 2 9 11 15 17 17 20 20 21 22 21 20 18 16
15 16 18 20 20 12 4 4 2 4 1 3 5 5 4 5 3 4 2 4 6 8 5 4 3 5 2 3 6 6 6 8 7 14 7 9 13 19 18 14 11 12 11 12
15 15 15 16 16 13 4 5 7 4 5 4 5 2 4 6 2 6 2 5 5 6 7 4 6 9 8 8 9 8 8 7 8 9 6 13 4 2 2 6 9 5 9 5
11 13 13 14 14 11 5 4 5 3 6 5 7 10 10 8 7 9 8 7 4 6 6 7 9 10 12 14 7 9 9 7 7 7 10 11 12 9 5 5 10 3 1 5
10 9 10 10 11 9 5 4 2 4 5 2 5 8 8 9 11 11 12 8 6 6 7 9 15 12 7 5 9 6 7 6 8 8 9 11 6 6 1 2 8 5 4 7
10 9 7 9 8 8 5 4 2 4 5 8 8 7 5 5 7 8 3 4 8 7 10 12 12 14 13 13 13 8 10 10 12 11 10 8 6 4 3 7 4 6 5 6
9 10 8 7 8 7 4 6 5 4 4 10 13 10 9 10 6 7 6 7 8 7 11 12 11 10 9 12 14 10 11 9 8 8 10 12 7 4 6 8 9 8 7 7
10 10 9 7 8 6 6 6 4 6 6 9 15 16 20 19 19 10 7 10 4 4 5 6 6 10 5 9 11 9 11 10 7 5 2 5 2 4 8 9 11 9 8 7
11 9 10 8 6 7 5 8 8 4 3 12 17 14 20 23 25 22 7 8 8 4 4 7 4 6 5 8 12 11 8 6 8 10 12 6 4 9 3 6 8 9 7 7
12 9 10 9 8 8 5 10 8 6 6 5 4 6 10 12 16 24 23 24 13 7 6 8 8 8 5 9 7 6 6 6 9 12 15 14 16 4 5 9 10 9 8 6
13 10 10 9 8 7 8 13 15 15 6 4 8 25 30 28 23 19 20 25 18 11 10 8 9 9 7 8 7 10 12 13 11 11 12 11 14 13 11 13 14 12 8 6
11 9 8 9 8 5 6 3 12 16 17 4 5 8 11 12 15 27 22 16 12 11 9 9 9 12 6 7 9 14 12 11 14 14 10 13 16 12 14 14 10 9 7 5
10 9 9 8 8 8 8 5 4 6 4 3 5 5 4 2 13 11 11 21 9 9 11 10 10 9 6 11 13 13 10 10 9 11 14 15 14 13 12 8 11 6 9 5
8 6 6 7 8 10 15 22 14 9 5 4 4 5 8 6 6 8 7 9 10 9 10 8 10 7 6 9 12 10 8 6 8 8 6 11 12 12 13 12 8 8 8 7
6 6 6 5 6 6 6 11 6 9 4 3 4 7 2 3 8 6 8 7 9 6 9 12 8 10 8 8 9 5 2 4 4 6 11 7 7 7 6 7 8 10 8 6
6 5 4 3 6 9 7 7 5 4 4 4 4 5 8 3 5 7 7 6 4 6 11 8 6 11 13 14 7 4 6 5 5 8 8 5 7 5 4 5 7 8 7 6
5 6 4 1 5 8 4 4 5 5 4 4 7 13 9 2 5 4 5 4 3 7 6 7 7 8 5 2 4 4 4 4 5 4 4 4 6 7 6 4 7 7 9 8
3 4 5 2 3 5 5 5 5 6 5 4 6 6 6 4 4 2 4 4 2 3 7 5 4 4 4 4 5 4 1 2 4 4 5 6 6 5 5 5 6 7 6 5
2 3 2 4 4 4 5 6 4 4 4 3 2 3 5 5 5 6 4 5 5 4 5 4 3 7 6 6 4 2 1 3 1 2 4 7 6 4 5 5 5 6 6 5
2 3 3 5 5 4 6 7 2 1 1 2 2 4 4 2 3 3 3 2 3 3 4 3 6 7 8 5 4 4 5 5 2 3 3 4 5 3 3 3 6 8 10 8
2 2 4 7 6 6 7 7 8 6 3 2 5 5 5 8 5 5 2 3 2 3 3 4 5 5 3 2 4 3 2 2 3 3 3 6 4 8 11 11 9 13 13 10
3 4 5 5 6 2 3 5 4 1 4 4 6 4 4 6 3 3 5 2 4 4 5 5 4 5 3 1 2 2 4 3 3 4 5 8 11 8 13 17 13 14 15 12
3 4 4 4 6 6 3 2 4 3 2 4 4 4 4 2 3 2 4 3 6 6 5 3 3 2 1 4 4 3 5 7 9 9 10 11 12 9 11 11 12 15 15 14
Wind_Direction
353 354 354 358 359 355 10 317 253 16 339 244 237 234 200 316 221 205 221 265 262 225 191 198 200 190 20 78 263 236 79 276 271 293 71 295 275 289 274 292 281 263 281 277
353 353 354 356 3 11 333 325 296 325 312 248 212 151 184 254 250 218 213 198 250 213 194 192 205 153 102 85 243 343 155 256 263 222 183 195 229 230 261 276 281 266 283 280
350 352 353 352 357 356 346 294 276 158 200 330 298 216 206 202 158 204 305 250 215 190 196 213 179 182 142 118 94 27 210 271 267 283 325 336 276 265 247 263 275 288 285 300
345 351 351 350 353 353 336 278 65 357 15 115 301 256 353 232 210 207 252 191 246 218 211 210 214 196 169 176 139 208 271 269 281 268 282 280 272 269 270 270 268 272 290 292
340 348 351 350 354 360 286 319 331 319 282 280 265 161 207 245 185 258 184 256 197 210 239 234 222 232 225 264 163 249 231 279 277 275 273 266 269 265 265 266 271 279 277 277
337 344 350 354 360 21 336 11 284 281 138 236 243 245 251 227 259 179 317 319 276 219 106 325 327 293 308 311 280 273 269 283 261 278 298 294 260 251 254 263 267 277 288 336
334 339 347 354 360 20 336 9 298 271 258 245 259 315 271 239 267 299 279 297 254 53 314 272 248 242 237 237 240 247 247 242 260 265 277 254 66 95 328 280 288 276 280 333
315 329 339 347 353 357 345 322 326 293 268 292 272 254 256 255 246 261 276 269 348 310 276 240 233 234 237 240 244 214 222 230 257 253 250 286 268 183 230 255 297 28 309 327
291 310 327 335 343 340 330 299 291 297 299 254 317 279 274 268 256 251 249 240 280 281 257 228 240 235 241 204 174 218 199 240 254 250 271 277 66 121 111 309 253 114 343 331
299 288 297 320 328 331 324 262 301 268 258 279 284 273 331 292 272 274 295 245 234 233 242 240 238 240 234 238 236 184 211 228 238 238 253 263 67 107 145 244 40 347 326 320
296 280 277 305 318 325 311 262 232 226 258 285 287 285 274 257 245 271 66 255 206 239 235 246 245 243 229 230 253 248 235 233 225 234 257 249 111 161 259 356 324 299 297 306
286 277 270 266 309 304 301 268 232 237 233 286 299 277 267 266 280 290 272 273 310 319 267 236 262 241 240 247 250 187 246 244 298 247 9 93 338 325 316 300 286 286 283 296
264 262 266 262 279 281 301 267 272 303 266 273 252 256 258 246 242 242 259 255 259 249 339 320 277 257 262 222 234 250 203 228 248 258 241 243 278 308 286 334 315 293 286 294
262 256 255 251 265 275 288 261 248 247 285 274 283 279 258 256 244 235 231 250 268 273 270 268 258 243 186 259 279 279 276 160 244 248 260 283 277 288 320 324 316 304 270 273
250 242 251 243 256 259 272 266 243 234 255 319 304 304 277 252 238 232 228 235 245 250 245 234 242 252 259 251 268 260 250 240 250 255 269 282 281 296 281 315 303 292 265 269
243 239 237 239 247 235 293 264 210 217 217 279 297 330 280 253 229 220 224 221 224 232 236 247 254 261 242 253 242 257 276 265 263 260 290 296 292 284 278 290 314 277 241 248
234 234 232 234 235 222 232 321 108 118 201 243 280 272 172 247 219 206 213 218 227 225 226 236 244 221 200 253 259 262 241 260 258 257 286 279 266 265 264 275 297 253 247 223
216 223 222 230 237 253 258 245 252 253 202 248 260 272 266 176 206 191 200 206 208 215 228 227 226 195 224 253 256 264 275 289 272 254 252 275 278 278 267 266 254 214 215 208
205 211 223 239 218 228 232 198 215 201 206 248 242 252 287 312 262 183 185 190 198 213 215 229 220 220 217 231 246 260 293 276 303 284 275 294 279 273 257 233 210 216 212 205
191 196 209 225 213 194 160 161 174 187 198 219 250 273 264 351 318 220 171 184 215 206 203 208 229 243 241 235 233 250 259 258 272 285 286 317 287 322 276 217 216 221 227 212
198 202 221 343 168 186 199 208 194 175 226 216 240 235 240 336 255 253 170 208 208 200 176 201 217 232 170 125 201 196 209 235 259 266 269 295 294 289 279 232 227 223 229 222
191 302 279 236 219 213 221 191 161 203 231 209 234 234 178 229 232 258 237 251 289 205 149 213 241 101 123 160 139 148 210 267 261 265 256 280 296 277 247 223 194 205 218 214
270 253 265 212 196 214 226 200 207 204 197 213 217 198 183 204 211 239 231 215 199 138 186 199 107 129 121 121 116 92 251 237 236 262 292 289 291 224 214 187 183 178 167 126
225 215 237 223 203 221 232 237 331 28 168 107 280 228 183 191 205 306 261 312 268 219 184 126 133 114 110 95 46 46 48 29 31 4 19 72 13 17 54 124 141 134 110 110
241 185 238 224 215 192 240 267 271 255 167 183 266 230 214 179 186 212 262 248 224 42 65 97 105 105 110 73 47 33 11 359 44 18 81 87 58 94 63 43 111 113 108 87
229 204 252 271 283 274 286 288 280 310 219 215 236 248 216 208 189 192 210 194 56 70 81 71 55 66 81 138 191 94 64 40 45 61 83 121 107 87 86 66 85 96 85 81
239 239 238 257 273 273 276 304 267 215 218 217 206 217 195 125 175 175 23 51 96 93 94 80 52 59 60 88 84 85 75 78 73 80 82 113 126 130 104 97 89 94 100 96